Погода в Пальм Бич

Аруба     12°34′29″N   70°02′37″W
темп.,
°C
ветер,
м/с
пор.,
м/с
влажн.,
%
обл.,
%
осадки,
мм/ч
давл.,
гПа
погр.,
м
28 февраля, вс
вс2823:00+26всв1214780 0.1 10141232
02:00+26в12147744 0.8 10131208
05:00+26в121476100 0.7 10121219
08:00+25в121477100 2.2 10141147
11:00+26в11147425 0.7 10161288
14:00+26в11147521 1.3 10131308
17:00+26в11137527 0.1 10111239
20:00+26всв11147513 0.1 10121239
1 марта, пн
пн123:00+26всв12137711 0.2 10141191
02:00+26всв11137611 0.5 10121271
05:00+26в11137599 1.2 10111217
08:00+26в11137451 1.4 10131278
11:00+26в1112740 0.1 10141233
14:00+26в10127615 0.1 10111238
17:00+26всв1112725 0.2 10101206
20:00+26всв1012727 0.2 10121210
2 марта, вт
вт223:00+26всв1011750 0.0 10131182
02:00+25всв1011711 0.0 1012974
05:00+25в9107513 0.0 10121033
08:00+25в9107817 0.5 10141015
11:00+25в897839 0.4 10151000
14:00+26в787624 0.6 1013999
17:00+26в89762 0.0 1011911
20:00+26в8107520 0.0 1012900
3 марта, ср
ср323:00+26в810780 0.0 1014935
02:00+26в910780 0.0 10131049
05:00+26в10117735 0.1 10121116
08:00+25вюв10117628 0.2 1014994
11:00+26в1011712 0.0 10151017
14:00+26в910741 0.0 1012955
17:00+26в1011793 0.0 1011997
20:00+26в1012782 0.0 1012976
4 марта, чт
чт423:00+26в1113800 0.0 10131012
02:00+26в11138018 0.1 10131119
05:00+26вюв11127858 0.1 10121163
08:00+26вюв10127735 0.1 10141146
11:00+26вюв10117624 0.0 10151048
14:00+26в10117714 0.0 10121010
17:00+26в1011780 0.0 1010868
20:00+26всв1012810 0.0 1011776